User: anonymous   Login
Location: Unspecified
(0.0000°N, 0.0000°E)
Time: 04:21:13
(UTC+00:00)
Language:

GONETS M04 - Orbit

View from above orbital plane
View from above orbital plane
View from above satellite
View from above satellite

Ground track
Ground track

The orbit data is extracted from the following two-line orbital elements,

1 38736U 12041D   19054.18046799  .00000028  00000-0  12512-3 0  9992
2 38736  82.4804 299.4885 0024748 124.3028 236.0402 12.43807289298319
Epoch (UTC): 23 February 2019 04:19:52
Eccentricity: 0.0024748
inclination: 82.4804°
perigee height: 1471 km
apogee height: 1510 km
right ascension of ascending node: 299.4885°
argument of perigee: 124.3028°
revolutions per day: 12.43807289
mean anomaly at epoch: 236.0402°
orbit number at epoch: 29831

The dashed part of the orbit path shows where the satellite is in the earth's shadow,  

DLR